{"data":{"norad_id":41879,"intl_designator":"2016-075A","name":"WGS F8 (USA 272)","alt_names":[],"object_type":"PAYLOAD","status":"ACTIVE","operator":null,"country":"US","launch_date":"2016-12-07","launch_site_code":"AFETR","launch_vehicle":null,"mission":null,"orbit_class":"UNKNOWN","rcs_meters":null,"size_class":null,"mass_kg":null,"dimensions":null,"purposes":["comms"],"wikipedia_slug":null,"has_3d_model":false,"image_url":null,"decayed_at":null,"tle_current":{"epoch":"2026-05-25T05:02:38.473728Z","epoch_age_seconds":60001,"freshness":"FRESH","line1":"1 41879U 16075A   26145.21016752 -.00000203  00000+0  00000+0 0  9994","line2":"2 41879   0.0093 340.0703 0000534   4.2006 124.0068  1.00277359 34590","mean_motion":1.00277359,"eccentricity":5.34e-5,"inclination_deg":0.0093,"raan_deg":340.0703,"arg_perigee_deg":4.2006,"mean_anomaly_deg":124.0068,"bstar":0,"rev_number":3459,"period_min":1436.0170773943,"perigee_km":35782.780925783,"apogee_km":35787.283952279,"semimajor_km":42163.169439031,"source":"CELESTRAK","updated_at":"2026-05-25T13:38:14.010091Z"}}}